Year,Month,Day,Hour,Minute,Value (Times are PST for temperature in C)
2023,04,29,00,00,14.50
2023,04,29,00,01,14.60
2023,04,29,00,02,14.50
2023,04,29,00,03,14.50
2023,04,29,00,04,14.50
2023,04,29,00,05,14.50
2023,04,29,00,06,14.50
2023,04,29,00,07,14.50
2023,04,29,00,08,14.50
2023,04,29,00,09,14.40
2023,04,29,00,10,14.40
2023,04,29,00,11,14.50
2023,04,29,00,12,14.50
2023,04,29,00,13,14.50
2023,04,29,00,14,14.40
2023,04,29,00,15,14.40
2023,04,29,00,16,14.40
2023,04,29,00,17,14.30
2023,04,29,00,18,14.20
2023,04,29,00,19,14.10
2023,04,29,00,20,14.10
2023,04,29,00,21,14.10
2023,04,29,00,22,14.00
2023,04,29,00,23,13.90
2023,04,29,00,24,13.90
2023,04,29,00,25,13.90
2023,04,29,00,26,13.80
2023,04,29,00,27,13.80
2023,04,29,00,28,13.80
2023,04,29,00,29,13.70
2023,04,29,00,30,13.70
2023,04,29,00,31,13.70
2023,04,29,00,32,13.70
2023,04,29,00,33,13.60
2023,04,29,00,34,13.60
2023,04,29,00,35,13.60
2023,04,29,00,36,13.60
2023,04,29,00,37,13.50
2023,04,29,00,38,13.50
2023,04,29,00,39,13.50
2023,04,29,00,40,13.50
2023,04,29,00,41,13.40
2023,04,29,00,42,13.40
2023,04,29,00,43,13.40
2023,04,29,00,44,13.40
2023,04,29,00,45,13.40
2023,04,29,00,46,13.40
2023,04,29,00,47,13.40
2023,04,29,00,48,13.40
2023,04,29,00,49,13.40
2023,04,29,00,50,13.40
2023,04,29,00,51,13.40
2023,04,29,00,52,13.40
2023,04,29,00,53,13.40
2023,04,29,00,54,13.40
2023,04,29,00,55,13.40
2023,04,29,00,56,13.50
2023,04,29,00,57,13.50
2023,04,29,00,58,13.60
2023,04,29,00,59,13.60
2023,04,29,01,00,13.70
2023,04,29,01,01,13.70
2023,04,29,01,02,13.70
2023,04,29,01,03,13.80
2023,04,29,01,04,13.80
2023,04,29,01,05,13.90
2023,04,29,01,06,13.90
2023,04,29,01,07,13.90
2023,04,29,01,08,13.90
2023,04,29,01,09,14.00
2023,04,29,01,10,14.00
2023,04,29,01,11,14.00
2023,04,29,01,12,14.10
2023,04,29,01,13,14.10
2023,04,29,01,14,14.10
2023,04,29,01,15,14.10
2023,04,29,01,16,14.00
2023,04,29,01,17,14.00
2023,04,29,01,18,14.00
2023,04,29,01,19,14.00
2023,04,29,01,20,13.90
2023,04,29,01,21,13.90
2023,04,29,01,22,13.90
2023,04,29,01,23,13.90
2023,04,29,01,24,13.90
2023,04,29,01,25,13.90
2023,04,29,01,26,13.90
2023,04,29,01,27,13.90
2023,04,29,01,28,13.90
2023,04,29,01,29,13.90
2023,04,29,01,30,13.90
2023,04,29,01,31,13.80
2023,04,29,01,32,13.80
2023,04,29,01,33,13.90
2023,04,29,01,34,13.80
2023,04,29,01,35,13.80
2023,04,29,01,36,13.80
2023,04,29,01,37,13.90
2023,04,29,01,38,13.90
2023,04,29,01,39,13.90
2023,04,29,01,40,13.90
2023,04,29,01,41,13.90
2023,04,29,01,42,13.90
2023,04,29,01,43,13.90
2023,04,29,01,44,13.90
2023,04,29,01,45,13.90
2023,04,29,01,46,13.90
2023,04,29,01,47,13.90
2023,04,29,01,48,13.80
2023,04,29,01,49,13.80
2023,04,29,01,50,13.80
2023,04,29,01,51,13.70
2023,04,29,01,52,13.70
2023,04,29,01,53,13.70
2023,04,29,01,54,13.60
2023,04,29,01,55,13.60
2023,04,29,01,56,13.60
2023,04,29,01,57,13.60
2023,04,29,01,58,13.50
2023,04,29,01,59,13.50
2023,04,29,02,00,13.50
2023,04,29,02,01,13.50
2023,04,29,02,02,13.50
2023,04,29,02,03,13.40
2023,04,29,02,04,13.40
2023,04,29,02,05,13.40
2023,04,29,02,06,13.40
2023,04,29,02,07,13.40
2023,04,29,02,08,13.40
2023,04,29,02,09,13.40
2023,04,29,02,10,13.40
2023,04,29,02,11,13.40
2023,04,29,02,12,13.30
2023,04,29,02,13,13.40
2023,04,29,02,14,13.30
2023,04,29,02,15,13.30
2023,04,29,02,16,13.30
2023,04,29,02,17,13.30
2023,04,29,02,18,13.30
2023,04,29,02,19,13.30
2023,04,29,02,20,13.30
2023,04,29,02,21,13.20
2023,04,29,02,22,13.20
2023,04,29,02,23,13.20
2023,04,29,02,24,13.20
2023,04,29,02,25,13.10
2023,04,29,02,26,13.10
2023,04,29,02,27,13.10
2023,04,29,02,28,13.10
2023,04,29,02,29,13.10
2023,04,29,02,30,13.00
2023,04,29,02,31,13.00
2023,04,29,02,32,13.00
2023,04,29,02,33,12.90
2023,04,29,02,34,12.90
2023,04,29,02,35,12.90
2023,04,29,02,36,12.90
2023,04,29,02,37,12.80
2023,04,29,02,38,12.80
2023,04,29,02,39,12.80
2023,04,29,02,40,12.80
2023,04,29,02,41,12.80
2023,04,29,02,42,12.80
2023,04,29,02,43,12.70
2023,04,29,02,44,12.70
2023,04,29,02,45,12.70
2023,04,29,02,46,12.70
2023,04,29,02,47,12.70
2023,04,29,02,48,12.70
2023,04,29,02,49,12.70
2023,04,29,02,50,12.70
2023,04,29,02,51,12.70
2023,04,29,02,52,12.80
2023,04,29,02,53,12.80
2023,04,29,02,54,12.80
2023,04,29,02,55,12.80
2023,04,29,02,56,12.70
2023,04,29,02,57,12.70
2023,04,29,02,58,12.70
2023,04,29,02,59,12.70
2023,04,29,03,00,12.70
2023,04,29,03,01,12.70
2023,04,29,03,02,12.70
2023,04,29,03,03,12.70
2023,04,29,03,04,12.60
2023,04,29,03,05,12.60
2023,04,29,03,06,12.60
2023,04,29,03,07,12.60
2023,04,29,03,08,12.60
2023,04,29,03,09,12.60
2023,04,29,03,10,12.70
2023,04,29,03,11,12.70
2023,04,29,03,12,12.70
2023,04,29,03,13,12.60
2023,04,29,03,14,12.60
2023,04,29,03,15,12.60
2023,04,29,03,16,12.60
2023,04,29,03,17,12.60
2023,04,29,03,18,12.60
2023,04,29,03,19,12.60
2023,04,29,03,20,12.60
2023,04,29,03,21,12.60
2023,04,29,03,22,12.60
2023,04,29,03,23,12.60
2023,04,29,03,24,12.60
2023,04,29,03,25,12.60
2023,04,29,03,26,12.60
2023,04,29,03,27,12.60
2023,04,29,03,28,12.60
2023,04,29,03,29,12.60
2023,04,29,03,30,12.50
2023,04,29,03,31,12.50
2023,04,29,03,32,12.50
2023,04,29,03,33,12.50
2023,04,29,03,34,12.50
2023,04,29,03,35,12.50
2023,04,29,03,36,12.50
2023,04,29,03,37,12.40
2023,04,29,03,38,12.50
2023,04,29,03,39,12.50
2023,04,29,03,40,12.50
2023,04,29,03,41,12.50
2023,04,29,03,42,12.50
2023,04,29,03,43,12.50
2023,04,29,03,44,12.50
2023,04,29,03,45,12.40
2023,04,29,03,46,12.40
2023,04,29,03,47,12.50
2023,04,29,03,48,12.40
2023,04,29,03,49,12.40
2023,04,29,03,50,12.40
2023,04,29,03,51,12.40
2023,04,29,03,52,12.40
2023,04,29,03,53,12.30
2023,04,29,03,54,12.30
2023,04,29,03,55,12.30
2023,04,29,03,56,12.20
2023,04,29,03,57,12.20
2023,04,29,03,58,12.20
2023,04,29,03,59,12.10
2023,04,29,04,00,12.10
2023,04,29,04,01,12.10
2023,04,29,04,02,12.00
2023,04,29,04,03,12.00
2023,04,29,04,04,11.90
2023,04,29,04,05,11.90
2023,04,29,04,06,11.90
2023,04,29,04,07,11.80
2023,04,29,04,08,11.80
2023,04,29,04,09,11.70
2023,04,29,04,10,11.70
2023,04,29,04,11,11.60
2023,04,29,04,12,11.60
2023,04,29,04,13,11.60
2023,04,29,04,14,11.60
2023,04,29,04,15,11.50
2023,04,29,04,16,11.50
2023,04,29,04,17,11.50
2023,04,29,04,18,11.40
2023,04,29,04,19,11.40
2023,04,29,04,20,11.40
2023,04,29,04,21,11.40
2023,04,29,04,22,11.40
2023,04,29,04,23,11.30
2023,04,29,04,24,11.30
2023,04,29,04,25,11.30
2023,04,29,04,26,11.30
2023,04,29,04,27,11.30
2023,04,29,04,28,11.40
2023,04,29,04,29,11.40
2023,04,29,04,30,11.40
2023,04,29,04,31,11.50
2023,04,29,04,32,11.50
2023,04,29,04,33,11.60
2023,04,29,04,34,11.60
2023,04,29,04,35,11.60
2023,04,29,04,36,11.60
2023,04,29,04,37,11.60
2023,04,29,04,38,11.60
2023,04,29,04,39,11.70
2023,04,29,04,40,11.70
2023,04,29,04,41,11.70
2023,04,29,04,42,11.70
2023,04,29,04,43,11.70
2023,04,29,04,44,11.70
2023,04,29,04,45,11.80
2023,04,29,04,46,11.80
2023,04,29,04,47,11.70
2023,04,29,04,48,11.80
2023,04,29,04,49,11.70
2023,04,29,04,50,11.80
2023,04,29,04,51,11.80
2023,04,29,04,52,11.70
2023,04,29,04,53,11.70
2023,04,29,04,54,11.70
2023,04,29,04,55,11.70
2023,04,29,04,56,11.70
2023,04,29,04,57,11.70
2023,04,29,04,58,11.70
2023,04,29,04,59,11.70
2023,04,29,05,00,11.70
2023,04,29,05,01,11.70
2023,04,29,05,02,11.70
2023,04,29,05,03,11.70
2023,04,29,05,04,11.70
2023,04,29,05,05,11.60
2023,04,29,05,06,11.60
2023,04,29,05,07,11.60
2023,04,29,05,08,11.60
2023,04,29,05,09,11.60
2023,04,29,05,10,11.60
2023,04,29,05,11,11.60
2023,04,29,05,12,11.60
2023,04,29,05,13,11.60
2023,04,29,05,14,11.60
2023,04,29,05,15,11.60
2023,04,29,05,16,11.60
2023,04,29,05,17,11.60
2023,04,29,05,18,11.60
2023,04,29,05,19,11.60
2023,04,29,05,20,11.60
2023,04,29,05,21,11.60
2023,04,29,05,22,11.60
2023,04,29,05,23,11.60
2023,04,29,05,24,11.60
2023,04,29,05,25,11.60
2023,04,29,05,26,11.60
2023,04,29,05,27,11.60
2023,04,29,05,28,11.50
2023,04,29,05,29,11.50
2023,04,29,05,30,11.50
2023,04,29,05,31,11.50
2023,04,29,05,32,11.50
2023,04,29,05,33,11.50
2023,04,29,05,34,11.40
2023,04,29,05,35,11.40
2023,04,29,05,36,11.40
2023,04,29,05,37,11.40
2023,04,29,05,38,11.40
2023,04,29,05,39,11.40
2023,04,29,05,40,11.40
2023,04,29,05,41,11.40
2023,04,29,05,42,11.30
2023,04,29,05,43,11.30
2023,04,29,05,44,11.30
2023,04,29,05,45,11.30
2023,04,29,05,46,11.30
2023,04,29,05,47,11.30
2023,04,29,05,48,11.30
2023,04,29,05,49,11.30
2023,04,29,05,50,11.20
2023,04,29,05,51,11.20
2023,04,29,05,52,11.20
2023,04,29,05,53,11.20
2023,04,29,05,54,11.20
2023,04,29,05,55,11.20
2023,04,29,05,56,11.20
2023,04,29,05,57,11.20
2023,04,29,05,58,11.20
2023,04,29,05,59,11.20
2023,04,29,06,00,11.30
2023,04,29,06,01,11.20
2023,04,29,06,02,11.20
2023,04,29,06,03,11.20
2023,04,29,06,04,11.20
2023,04,29,06,05,11.20
2023,04,29,06,06,11.20
2023,04,29,06,07,11.20
2023,04,29,06,08,11.20
2023,04,29,06,09,11.20
2023,04,29,06,10,11.20
2023,04,29,06,11,11.20
2023,04,29,06,12,11.20
2023,04,29,06,13,11.20
2023,04,29,06,14,11.20
2023,04,29,06,15,11.20
2023,04,29,06,16,11.20
2023,04,29,06,17,11.20
2023,04,29,06,18,11.10
2023,04,29,06,19,11.10
2023,04,29,06,20,11.10
2023,04,29,06,21,11.10
2023,04,29,06,22,11.10
2023,04,29,06,23,11.10
2023,04,29,06,24,11.10
2023,04,29,06,25,11.10
2023,04,29,06,26,11.10
2023,04,29,06,27,11.10
2023,04,29,06,28,11.10
2023,04,29,06,29,11.10
2023,04,29,06,30,11.00
2023,04,29,06,31,11.00
2023,04,29,06,32,11.00
2023,04,29,06,33,11.00
2023,04,29,06,34,11.00
2023,04,29,06,35,11.00
2023,04,29,06,36,11.00
2023,04,29,06,37,11.00
2023,04,29,06,38,11.00
2023,04,29,06,39,11.00
2023,04,29,06,40,11.00
2023,04,29,06,41,11.00
2023,04,29,06,42,11.10
2023,04,29,06,43,11.10
2023,04,29,06,44,11.10
2023,04,29,06,45,11.20
2023,04,29,06,46,11.20
2023,04,29,06,47,11.20
2023,04,29,06,48,11.30
2023,04,29,06,49,11.30
2023,04,29,06,50,11.30
2023,04,29,06,51,11.30
2023,04,29,06,52,11.30
2023,04,29,06,53,11.30
2023,04,29,06,54,11.30
2023,04,29,06,55,11.40
2023,04,29,06,56,11.40
2023,04,29,06,57,11.40
2023,04,29,06,58,11.40
2023,04,29,06,59,11.40
2023,04,29,07,00,11.40
2023,04,29,07,01,11.30
2023,04,29,07,02,11.30
2023,04,29,07,03,11.30
2023,04,29,07,04,11.30
2023,04,29,07,05,11.30
2023,04,29,07,06,11.30
2023,04,29,07,07,11.30
2023,04,29,07,08,11.30
2023,04,29,07,09,11.20
2023,04,29,07,10,11.20
2023,04,29,07,11,11.20
2023,04,29,07,12,11.20
2023,04,29,07,13,11.20
2023,04,29,07,14,11.20
2023,04,29,07,15,11.20
2023,04,29,07,16,11.20
2023,04,29,07,17,11.20
2023,04,29,07,18,11.20
2023,04,29,07,19,11.10
2023,04,29,07,20,11.10
2023,04,29,07,21,11.10
2023,04,29,07,22,11.10
2023,04,29,07,23,11.10
2023,04,29,07,24,11.10
2023,04,29,07,25,11.10
2023,04,29,07,26,11.10
2023,04,29,07,27,11.10
2023,04,29,07,28,11.10
2023,04,29,07,29,11.10
2023,04,29,07,30,11.10
2023,04,29,07,31,11.00
2023,04,29,07,32,11.00
2023,04,29,07,33,11.10
2023,04,29,07,34,11.00
2023,04,29,07,35,11.00
2023,04,29,07,36,11.00
2023,04,29,07,37,11.00
2023,04,29,07,38,11.00
2023,04,29,07,39,11.00
2023,04,29,07,40,11.00
2023,04,29,07,41,11.00
2023,04,29,07,42,11.00
2023,04,29,07,43,11.00
2023,04,29,07,44,11.00
2023,04,29,07,45,11.00
2023,04,29,07,46,11.00
2023,04,29,07,47,11.00
2023,04,29,07,48,11.00
2023,04,29,07,49,11.00
2023,04,29,07,50,11.00
2023,04,29,07,51,11.10
2023,04,29,07,52,11.10
2023,04,29,07,53,11.10
2023,04,29,07,54,11.10
2023,04,29,07,55,11.10
2023,04,29,07,56,11.10
2023,04,29,07,57,11.10
2023,04,29,07,58,11.10
2023,04,29,07,59,11.10
2023,04,29,08,00,11.10
2023,04,29,08,01,11.10
2023,04,29,08,02,11.00
2023,04,29,08,03,11.00
2023,04,29,08,04,11.00
2023,04,29,08,05,11.00
2023,04,29,08,06,11.00
2023,04,29,08,07,11.00
2023,04,29,08,08,11.00
2023,04,29,08,09,11.00
2023,04,29,08,10,11.00
2023,04,29,08,11,11.00
2023,04,29,08,12,10.90
2023,04,29,08,13,11.00
2023,04,29,08,14,11.00
2023,04,29,08,15,11.00
2023,04,29,08,16,11.00
2023,04,29,08,17,11.00
2023,04,29,08,18,11.00
2023,04,29,08,19,11.00
2023,04,29,08,20,11.00
2023,04,29,08,21,11.00
2023,04,29,08,22,11.00
2023,04,29,08,23,11.00
2023,04,29,08,24,11.00
2023,04,29,08,25,11.00
2023,04,29,08,26,11.10
2023,04,29,08,27,11.10
2023,04,29,08,28,11.10
2023,04,29,08,29,11.10
2023,04,29,08,30,11.10
2023,04,29,08,31,11.10
2023,04,29,08,32,11.10
2023,04,29,08,33,11.10
2023,04,29,08,34,11.10
2023,04,29,08,35,11.10
2023,04,29,08,36,11.10
2023,04,29,08,37,11.10
2023,04,29,08,38,11.10
2023,04,29,08,39,11.10
2023,04,29,08,40,11.10
2023,04,29,08,41,11.10
2023,04,29,08,42,11.10
2023,04,29,08,43,11.10
2023,04,29,08,44,11.10
2023,04,29,08,45,11.10
2023,04,29,08,46,11.10
2023,04,29,08,47,11.10
2023,04,29,08,48,11.10
2023,04,29,08,49,11.00
2023,04,29,08,50,11.00
2023,04,29,08,51,11.00
2023,04,29,08,52,11.00
2023,04,29,08,53,10.90
2023,04,29,08,54,10.90
2023,04,29,08,55,10.90
2023,04,29,08,56,10.90
2023,04,29,08,57,10.90
2023,04,29,08,58,10.90
2023,04,29,08,59,10.90
2023,04,29,09,00,10.90
2023,04,29,09,01,10.90
2023,04,29,09,02,10.90
2023,04,29,09,03,10.80
2023,04,29,09,04,10.80
2023,04,29,09,05,10.80
2023,04,29,09,06,10.80
2023,04,29,09,07,10.80
2023,04,29,09,08,10.80
2023,04,29,09,09,10.80
2023,04,29,09,10,10.80
2023,04,29,09,11,10.80
2023,04,29,09,12,10.80
2023,04,29,09,13,10.80
2023,04,29,09,14,10.80
2023,04,29,09,15,10.80
2023,04,29,09,16,10.80
2023,04,29,09,17,10.80
2023,04,29,09,18,10.80
2023,04,29,09,19,10.80
2023,04,29,09,20,10.80
2023,04,29,09,21,10.80
2023,04,29,09,22,10.80
2023,04,29,09,23,10.80
2023,04,29,09,24,10.80
2023,04,29,09,25,10.90
2023,04,29,09,26,10.90
2023,04,29,09,27,10.90
2023,04,29,09,28,11.00
2023,04,29,09,29,11.00
2023,04,29,09,30,11.00
2023,04,29,09,31,11.00
2023,04,29,09,32,10.90
2023,04,29,09,33,10.90
2023,04,29,09,34,10.90
2023,04,29,09,35,10.90
2023,04,29,09,36,10.90
2023,04,29,09,37,10.90
2023,04,29,09,38,10.90
2023,04,29,09,39,10.90
2023,04,29,09,40,10.90
2023,04,29,09,41,10.90
2023,04,29,09,42,10.90
2023,04,29,09,43,10.90
2023,04,29,09,44,10.90
2023,04,29,09,45,10.90
2023,04,29,09,46,10.90
2023,04,29,09,47,10.90
2023,04,29,09,48,10.90
2023,04,29,09,49,11.00
2023,04,29,09,50,11.00
2023,04,29,09,51,11.00
2023,04,29,09,52,11.10
2023,04,29,09,53,11.10
2023,04,29,09,54,11.20
2023,04,29,09,55,11.20
2023,04,29,09,56,11.20
2023,04,29,09,57,11.30
2023,04,29,09,58,11.30
2023,04,29,09,59,11.30
2023,04,29,10,00,11.30
2023,04,29,10,01,11.30
2023,04,29,10,02,11.30
2023,04,29,10,03,11.30
2023,04,29,10,04,11.40
2023,04,29,10,05,11.40
2023,04,29,10,06,11.40
2023,04,29,10,07,11.40
2023,04,29,10,08,11.50
2023,04,29,10,09,11.40
2023,04,29,10,10,11.50
2023,04,29,10,11,11.50
2023,04,29,10,12,11.50
2023,04,29,10,13,11.50
2023,04,29,10,14,11.50
2023,04,29,10,15,11.50
2023,04,29,10,16,11.50
2023,04,29,10,17,11.60
2023,04,29,10,18,11.60
2023,04,29,10,19,11.60
2023,04,29,10,20,11.60
2023,04,29,10,21,11.60
2023,04,29,10,22,11.70
2023,04,29,10,23,11.70
2023,04,29,10,24,11.70
2023,04,29,10,25,11.70
2023,04,29,10,26,11.70
2023,04,29,10,27,11.70
2023,04,29,10,28,11.80
2023,04,29,10,29,11.80
2023,04,29,10,30,11.80
2023,04,29,10,31,11.90
2023,04,29,10,32,11.90
2023,04,29,10,33,11.90
2023,04,29,10,34,11.90
2023,04,29,10,35,12.00
2023,04,29,10,36,12.00
2023,04,29,10,37,12.10
2023,04,29,10,38,12.10
2023,04,29,10,39,12.10
2023,04,29,10,40,12.20
2023,04,29,10,41,12.20
2023,04,29,10,42,12.20
2023,04,29,10,43,12.30
2023,04,29,10,44,12.30
2023,04,29,10,45,12.30
2023,04,29,10,46,12.30
2023,04,29,10,47,12.40
2023,04,29,10,48,12.40
2023,04,29,10,49,12.40
2023,04,29,10,50,12.40
2023,04,29,10,51,12.50
2023,04,29,10,52,12.50
2023,04,29,10,53,12.60
2023,04,29,10,54,12.60
2023,04,29,10,55,12.60
2023,04,29,10,56,12.70
2023,04,29,10,57,12.70
2023,04,29,10,58,12.80
2023,04,29,10,59,12.80
2023,04,29,11,00,12.80
2023,04,29,11,01,12.90
2023,04,29,11,02,12.90
2023,04,29,11,03,13.00
2023,04,29,11,04,13.00
2023,04,29,11,05,13.10
2023,04,29,11,06,13.10
2023,04,29,11,07,13.20
2023,04,29,11,08,13.30
2023,04,29,11,09,13.30
2023,04,29,11,10,13.40
2023,04,29,11,11,13.50
2023,04,29,11,12,13.50
2023,04,29,11,13,13.60
2023,04,29,11,14,13.70
2023,04,29,11,15,13.70
2023,04,29,11,16,13.80
2023,04,29,11,17,13.80
2023,04,29,11,18,13.80
2023,04,29,11,19,13.90
2023,04,29,11,20,13.90
2023,04,29,11,21,13.90
2023,04,29,11,22,13.90
2023,04,29,11,23,13.90
2023,04,29,11,24,13.90
2023,04,29,11,25,13.90
2023,04,29,11,26,13.90
2023,04,29,11,27,13.90
2023,04,29,11,28,13.90
2023,04,29,11,29,13.90
2023,04,29,11,30,13.90
2023,04,29,11,31,13.80
2023,04,29,11,32,13.80
2023,04,29,11,33,13.90
2023,04,29,11,34,13.90
2023,04,29,11,35,13.90
2023,04,29,11,36,13.90
2023,04,29,11,37,14.00
2023,04,29,11,38,14.10
2023,04,29,11,39,14.10
2023,04,29,11,40,14.20
2023,04,29,11,41,14.20
2023,04,29,11,42,14.30
2023,04,29,11,43,14.40
2023,04,29,11,44,14.40
2023,04,29,11,45,14.40
2023,04,29,11,46,14.50
2023,04,29,11,47,14.60
2023,04,29,11,48,14.70
2023,04,29,11,49,14.80
2023,04,29,11,50,14.80
2023,04,29,11,51,14.90
2023,04,29,11,52,14.90
2023,04,29,11,53,15.00
2023,04,29,11,54,15.00
2023,04,29,11,55,15.10
2023,04,29,11,56,15.10
2023,04,29,11,57,15.10
2023,04,29,11,58,15.10
2023,04,29,11,59,15.20
2023,04,29,12,00,15.20
2023,04,29,12,01,15.20
2023,04,29,12,02,15.20
2023,04,29,12,03,15.20
2023,04,29,12,04,15.30
2023,04,29,12,05,15.30
2023,04,29,12,06,15.30
2023,04,29,12,07,15.40
2023,04,29,12,08,15.40
2023,04,29,12,09,15.40
2023,04,29,12,10,15.50
2023,04,29,12,11,15.50
2023,04,29,12,12,15.60
2023,04,29,12,13,15.60
2023,04,29,12,14,15.70
2023,04,29,12,15,15.70
2023,04,29,12,16,15.80
2023,04,29,12,17,15.80
2023,04,29,12,18,15.90
2023,04,29,12,19,15.90
2023,04,29,12,20,16.00
2023,04,29,12,21,16.10
2023,04,29,12,22,16.10
2023,04,29,12,23,16.20
2023,04,29,12,24,16.20
2023,04,29,12,25,16.30
2023,04,29,12,26,16.30
2023,04,29,12,27,16.30
2023,04,29,12,28,16.40
2023,04,29,12,29,16.40
2023,04,29,12,30,16.40
2023,04,29,12,31,16.40
2023,04,29,12,32,16.40
2023,04,29,12,33,16.40
2023,04,29,12,34,16.40
2023,04,29,12,35,16.30
2023,04,29,12,36,16.10
2023,04,29,12,37,16.00
2023,04,29,12,38,15.90
2023,04,29,12,39,15.70
2023,04,29,12,40,15.60
2023,04,29,12,41,15.50
2023,04,29,12,42,15.40
2023,04,29,12,43,15.40
2023,04,29,12,44,15.40
2023,04,29,12,45,15.40
2023,04,29,12,46,15.40
2023,04,29,12,47,15.40
2023,04,29,12,48,15.50
2023,04,29,12,49,15.60
2023,04,29,12,50,15.60
2023,04,29,12,51,15.70
2023,04,29,12,52,15.80
2023,04,29,12,53,15.90
2023,04,29,12,54,16.00
2023,04,29,12,55,16.10
2023,04,29,12,56,16.20
2023,04,29,12,57,16.30
2023,04,29,12,58,16.40
2023,04,29,12,59,16.50
2023,04,29,13,00,16.60
2023,04,29,13,01,16.70
2023,04,29,13,02,16.80
2023,04,29,13,03,16.90
2023,04,29,13,04,17.00
2023,04,29,13,05,17.00
2023,04,29,13,06,17.10
2023,04,29,13,07,17.20
2023,04,29,13,08,17.20
2023,04,29,13,09,17.30
2023,04,29,13,10,17.40
2023,04,29,13,11,17.40
2023,04,29,13,12,17.50
2023,04,29,13,13,17.50
2023,04,29,13,14,17.60
2023,04,29,13,15,17.70
2023,04,29,13,16,17.70
2023,04,29,13,17,17.80
2023,04,29,13,18,17.90
2023,04,29,13,19,17.90
2023,04,29,13,20,18.00
2023,04,29,13,21,18.00
2023,04,29,13,22,18.10
2023,04,29,13,23,18.20
2023,04,29,13,24,18.20
2023,04,29,13,25,18.30
2023,04,29,13,26,18.30
2023,04,29,13,27,18.40
2023,04,29,13,28,18.40
2023,04,29,13,29,18.40
2023,04,29,13,30,18.50
2023,04,29,13,31,18.50
2023,04,29,13,32,18.60
2023,04,29,13,33,18.60
2023,04,29,13,34,18.70
2023,04,29,13,35,18.80
2023,04,29,13,36,18.80
2023,04,29,13,37,18.90
2023,04,29,13,38,18.90
2023,04,29,13,39,18.90
2023,04,29,13,40,18.90
2023,04,29,13,41,18.90
2023,04,29,13,42,18.90
2023,04,29,13,43,19.00
2023,04,29,13,44,19.00
2023,04,29,13,45,19.00
2023,04,29,13,46,19.10
2023,04,29,13,47,19.10
2023,04,29,13,48,19.10
2023,04,29,13,49,19.20
2023,04,29,13,50,19.20
2023,04,29,13,51,19.20
2023,04,29,13,52,19.30
2023,04,29,13,53,19.30
2023,04,29,13,54,19.40
2023,04,29,13,55,19.40
2023,04,29,13,56,19.50
2023,04,29,13,57,19.50
2023,04,29,13,58,19.60
2023,04,29,13,59,19.60
2023,04,29,14,00,19.70
2023,04,29,14,01,19.70
2023,04,29,14,02,19.80
2023,04,29,14,03,19.90
2023,04,29,14,04,19.90
2023,04,29,14,05,19.90
2023,04,29,14,06,20.00
2023,04,29,14,07,20.00
2023,04,29,14,08,20.10
2023,04,29,14,09,20.20
2023,04,29,14,10,20.20
2023,04,29,14,11,20.20
2023,04,29,14,12,20.20
2023,04,29,14,13,20.20
2023,04,29,14,14,20.20
2023,04,29,14,15,20.30
2023,04,29,14,16,20.30
2023,04,29,14,17,20.30
2023,04,29,14,18,20.30
2023,04,29,14,19,20.30
2023,04,29,14,20,20.30
2023,04,29,14,21,20.20
2023,04,29,14,22,20.10
2023,04,29,14,23,19.90
2023,04,29,14,24,19.80
2023,04,29,14,25,19.70
2023,04,29,14,26,19.50
2023,04,29,14,27,19.40
2023,04,29,14,28,19.40
2023,04,29,14,29,19.40
2023,04,29,14,30,19.40
2023,04,29,14,31,19.40
2023,04,29,14,32,19.50
2023,04,29,14,33,19.50
2023,04,29,14,34,19.50
2023,04,29,14,35,19.50
2023,04,29,14,36,19.50
2023,04,29,14,37,19.40
2023,04,29,14,38,19.30
2023,04,29,14,39,19.10
2023,04,29,14,40,19.00
2023,04,29,14,41,18.90
2023,04,29,14,42,18.90
2023,04,29,14,43,18.90
2023,04,29,14,44,18.90
2023,04,29,14,45,18.80
2023,04,29,14,46,18.70
2023,04,29,14,47,18.60
2023,04,29,14,48,18.50
2023,04,29,14,49,18.40
2023,04,29,14,50,18.20
2023,04,29,14,51,18.10
2023,04,29,14,52,18.10
2023,04,29,14,53,18.00
2023,04,29,14,54,18.10
2023,04,29,14,55,18.10
2023,04,29,14,56,18.10
2023,04,29,14,57,18.10
2023,04,29,14,58,18.10
2023,04,29,14,59,18.10
2023,04,29,15,00,18.20
2023,04,29,15,01,18.30
2023,04,29,15,02,18.40
2023,04,29,15,03,18.60
2023,04,29,15,04,18.70
2023,04,29,15,05,18.90
2023,04,29,15,06,19.00
2023,04,29,15,07,19.10
2023,04,29,15,08,19.10
2023,04,29,15,09,19.20
2023,04,29,15,10,19.10
2023,04,29,15,11,19.00
2023,04,29,15,12,18.90
2023,04,29,15,13,18.70
2023,04,29,15,14,18.50
2023,04,29,15,15,18.40
2023,04,29,15,16,18.30
2023,04,29,15,17,18.30
2023,04,29,15,18,18.20
2023,04,29,15,19,18.30
2023,04,29,15,20,18.40
2023,04,29,15,21,18.50
2023,04,29,15,22,18.70
2023,04,29,15,23,18.80
2023,04,29,15,24,19.00
2023,04,29,15,25,19.10
2023,04,29,15,26,19.10
2023,04,29,15,27,19.20
2023,04,29,15,28,19.30
2023,04,29,15,29,19.30
2023,04,29,15,30,19.40
2023,04,29,15,31,19.50
2023,04,29,15,32,19.70
2023,04,29,15,33,19.80
2023,04,29,15,34,19.90
2023,04,29,15,35,19.90
2023,04,29,15,36,20.00
2023,04,29,15,37,20.10
2023,04,29,15,38,20.20
2023,04,29,15,39,20.20
2023,04,29,15,40,20.30
2023,04,29,15,41,20.30
2023,04,29,15,42,20.30
2023,04,29,15,43,20.30
2023,04,29,15,44,20.40
2023,04,29,15,45,20.40
2023,04,29,15,46,20.50
2023,04,29,15,47,20.60
2023,04,29,15,48,20.70
2023,04,29,15,49,20.80
2023,04,29,15,50,20.90
2023,04,29,15,51,21.10
2023,04,29,15,52,21.10
2023,04,29,15,53,21.20
2023,04,29,15,54,21.30
2023,04,29,15,55,21.30
2023,04,29,15,56,21.40
2023,04,29,15,57,21.50
2023,04,29,15,58,21.50
2023,04,29,15,59,21.50
2023,04,29,16,00,21.60
2023,04,29,16,01,21.60
2023,04,29,16,02,21.70
2023,04,29,16,03,21.70
2023,04,29,16,04,21.60
2023,04,29,16,05,21.60
2023,04,29,16,06,21.60
2023,04,29,16,07,21.60
2023,04,29,16,08,21.50
2023,04,29,16,09,21.50
2023,04,29,16,10,21.40
2023,04,29,16,11,21.40
2023,04,29,16,12,21.40
2023,04,29,16,13,21.40
2023,04,29,16,14,21.30
2023,04,29,16,15,21.30
2023,04,29,16,16,21.30
2023,04,29,16,17,21.20
2023,04,29,16,18,21.30
2023,04,29,16,19,21.30
2023,04,29,16,20,21.30
2023,04,29,16,21,21.30
2023,04,29,16,22,21.30
2023,04,29,16,23,21.40
2023,04,29,16,24,21.40
2023,04,29,16,25,21.40
2023,04,29,16,26,21.50
2023,04,29,16,27,21.50
2023,04,29,16,28,21.50
2023,04,29,16,29,21.50
2023,04,29,16,30,21.60
2023,04,29,16,31,21.60
2023,04,29,16,32,21.60
2023,04,29,16,33,21.70
2023,04,29,16,34,21.70
2023,04,29,16,35,21.70
2023,04,29,16,36,21.70
2023,04,29,16,37,21.70
2023,04,29,16,38,21.60
2023,04,29,16,39,21.60
2023,04,29,16,40,21.60
2023,04,29,16,41,21.60
2023,04,29,16,42,21.60
2023,04,29,16,43,21.60
2023,04,29,16,44,21.60
2023,04,29,16,45,21.70
2023,04,29,16,46,21.70
2023,04,29,16,47,21.70
2023,04,29,16,48,21.70
2023,04,29,16,49,21.70
2023,04,29,16,50,21.70
2023,04,29,16,51,21.70
2023,04,29,16,52,21.80
2023,04,29,16,53,21.80
2023,04,29,16,54,21.80
2023,04,29,16,55,21.80
2023,04,29,16,56,21.90
2023,04,29,16,57,21.90
2023,04,29,16,58,21.90
2023,04,29,16,59,21.90
2023,04,29,17,00,21.90
2023,04,29,17,01,22.00
2023,04,29,17,02,22.00
2023,04,29,17,03,22.00
2023,04,29,17,04,22.00
2023,04,29,17,05,22.00
2023,04,29,17,06,22.10
2023,04,29,17,07,22.10
2023,04,29,17,08,22.10
2023,04,29,17,09,22.10
2023,04,29,17,10,22.10
2023,04,29,17,11,22.10
2023,04,29,17,12,22.10
2023,04,29,17,13,22.10
2023,04,29,17,14,22.10
2023,04,29,17,15,22.10
2023,04,29,17,16,22.10
2023,04,29,17,17,22.10
2023,04,29,17,18,22.20
2023,04,29,17,19,22.10